sat.trackr.live / text

‹ back to catalog

STARLINK-31253

NORAD 58830 · 2024-017E

PAYLOAD ACTIVE UNKNOWN

§ Identity

Operator
Country
US
Launch date
2024-01-24
Launch site
AFWTR
Launch vehicle
Mass (kg)
RCS (m²)

Purposes: comms

External: N2YO · Heavens-Above · Gunter

§ Orbital elements

Epoch: 2026-05-24T15:47:08.647872Z

Period
94.01 min
Inclination
53.1596°
Eccentricity
0.0001363
Mean motion
15.31728319 rev/d
Perigee alt
469.7 km
Apogee alt
471.6 km
Semi-major
6,848.8 km
B*
-1.2668e-4
RAAN
211.0058°
Arg perigee
84.9982°
Mean anomaly
275.1175°
Rev number
13,169

§ Raw data

STARLINK-312531 58830U 24017E   26144.65773898 -.00004297  00000+0 -12668-3 0  99972 58830  53.1596 211.0058 0001363  84.9982 275.1175 15.31728319131693

JSON: /api/v1/satellites/58830 · /tle

For live sub-satellite position, see the globe view (requires WebGL).

§ Visibility from observer

Set your observer location to see the next 7 days of passes ≥ 10°. The values pass through the URL so the page stays shareable.

No JS? Fill the form by hand. The geolocation button needs JavaScript.